Home   Weather   Fort Lauderdale   Past weeks
Flag for USA

Past Weather in Fort Lauderdale, Florida, USA — Yesterday and Last 2 Weeks

Now
76 °F

Light rain. Mostly cloudy.


Feels Like: 76 °F
Forecast: 82 / 79 °F
Wind: 3 mph from West

Location: Fort Lauderdale / Hollywood International Airport

Current Time: Jun 17, 2019 at 3:01:48 pm

Latest Report: Jun 17, 2019 at 1:53 pm


Visibility: 7 mi

Pressure: 30.07 "Hg

Humidity: 91%

Dew Point: 73 °F

Location of Fort LauderdaleLocation

Past Weather in Fort Lauderdale — Graph

°F

Fort Lauderdale Temperature Yesterday

Maximum temperature yesterday: 82 °F (at 12:53 am)
Minimum temperature yesterday: 74 °F (at 1:34 pm)
Average temperature yesterday: 78 °F

High & Low Weather Summary for the Past Weeks

 TemperatureHumidityPressure
High91 °F (Jun 3, 1:53 pm)94% (Jun 10, 3:53 am)30.10 "Hg (Jun 10, 3:53 am)
Low73 °F (Jun 10, 7:36 am)52% (Jun 2, 5:53 pm)29.85 "Hg (Jun 7, 4:53 pm)
Average82 °F77%29.99 "Hg
* Reported Jun 2 1:53 pm — Jun 17 1:53 pm, Fort Lauderdale. Weather by CustomWeather, © 2019

Note: Actual official high and low records may vary slightly from our data, if they occured in-between our weather recording intervals... More about our weather records

Advertising

Fort Lauderdale Weather History for the Previous 24 Hours

Scroll right to see more
 ConditionsComfort  
Time TempWeatherWind HumidityBarometerVisibility
1:53 pm
Mon, Jun 17
76 °FLight rain. Mostly cloudy.3 mph91%30.07 "Hg7 mi
1:01 pm76 °FLight rain. Fog.8 mph91%30.07 "Hg5 mi
11:53 am78 °FThunderstorms. Mostly cloudy.12 mph87%30.06 "Hg10 mi
11:07 am80 °FThunderstorms. Mostly cloudy.20 mph76%30.07 "Hg10 mi
10:53 am82 °FThunderstorms. Broken clouds.12 mph74%30.05 "Hg10 mi
10:11 am79 °FThundershowers. Broken clouds.13 mph84%30.04 "Hg10 mi
9:53 am78 °FBroken clouds.13 mph87%30.03 "Hg10 mi
8:53 am79 °FMostly cloudy.5 mph88%30.03 "Hg10 mi
8:19 am77 °FLight rain. Cloudy.7 mph82%30.03 "Hg10 mi
8:02 am81 °FHeavy rain. Mostly cloudy.16 mph85%30.02 "Hg3 mi
7:35 am80 °FBroken clouds.10 mph85%30.01 "Hg10 mi
6:53 am80 °FMostly cloudy.7 mph87%30.00 "Hg10 mi
5:53 am77 °FPartly cloudy.7 mph88%30.00 "Hg10 mi
4:53 am75 °FLight rain. Fog.7 mph94%29.99 "Hg6 mi
4:18 am74 °FLight rain. Fog.18 mph91%30.00 "Hg6 mi
3:55 am77 °FLight rain. Fog.13 mph88%29.98 "Hg4 mi
2:53 am78 °FMostly cloudy.22 mph84%29.98 "Hg10 mi
2:33 am79 °FLight rain. Mostly cloudy.8 mph84%30.00 "Hg6 mi
1:53 am81 °FLight rain. Partly cloudy.15 mph82%30.01 "Hg10 mi
12:53 am80 °FPassing clouds.15 mph79%30.02 "Hg10 mi
11:53 pm
Sun, Jun 16
80 °FPassing clouds.14 mph76%30.03 "Hg10 mi
10:53 pm79 °FPassing clouds.9 mph74%30.03 "Hg10 mi
9:53 pm77 °FPassing clouds.6 mph85%30.03 "Hg10 mi
8:53 pm77 °FPassing clouds.3 mph85%30.01 "Hg10 mi
7:53 pm77 °FMore clouds than sun.6 mph85%30.01 "Hg10 mi
6:53 pm77 °FOvercast.12 mph82%30.02 "Hg10 mi
5:53 pm76 °FMostly cloudy.8 mph82%30.01 "Hg10 mi
4:53 pm76 °FLight rain. Mostly cloudy.9 mph88%30.05 "Hg10 mi
3:53 pm75 °FLight rain. Mostly cloudy.6 mph94%30.05 "Hg10 mi
3:03 pm75 °FRain. Fog.5 mph90%30.06 "Hg4 mi
Weather by CustomWeather, © 2019

See weather overview